GOMAO EGKK-EKCH

Flight info

Callsign GOMAO
Flight time 1h 36m
Altitude 35000
Route FRANE M604 PAAVO Q295 SOMVA DCT MAVAS DCT DOSUR DCT TALSA P729 TUDLO
Aircraft C25C/M-SDE2E3FGHRWXY/LB1

Departure

Time 2026-05-06 16:08
Airport London Gatwick Airport (EGKK)

Arrival

Time 2026-05-06 17:44
Airport Copenhagen Kastrup Airport (EKCH)
Time Latitude Longitude Altitude Speed Heading
2026-05-06 15:51 51.15319 -0.18003 207 ft 0 kts 347°
2026-05-06 15:56 51.15313 -0.17987 202 ft 2 kts 221°
2026-05-06 15:56 51.15300 -0.17996 207 ft 2 kts 173°
2026-05-06 15:56 51.15284 -0.17991 198 ft 2 kts 173°
2026-05-06 15:57 51.15268 -0.17994 198 ft 2 kts 185°
2026-05-06 15:57 51.15259 -0.17996 198 ft 0 kts 206°
2026-05-06 15:57 51.15246 -0.18010 200 ft 0 kts 225°
2026-05-06 15:59 51.15237 -0.18026 198 ft 4 kts 226°
2026-05-06 15:59 51.15217 -0.18069 201 ft 5 kts 246°
2026-05-06 15:59 51.15207 -0.18124 198 ft 5 kts 258°
2026-05-06 16:00 51.15197 -0.18206 198 ft 14 kts 258°
2026-05-06 16:00 51.15179 -0.18382 198 ft 16 kts 258°
2026-05-06 16:00 51.15155 -0.18553 204 ft 16 kts 258°
2026-05-06 16:00 51.15133 -0.18720 198 ft 15 kts 258°
2026-05-06 16:01 51.15112 -0.18882 202 ft 15 kts 259°
2026-05-06 16:01 51.15088 -0.19036 198 ft 14 kts 253°
2026-05-06 16:01 51.15069 -0.19184 202 ft 14 kts 259°
2026-05-06 16:01 51.15050 -0.19329 198 ft 13 kts 256°
2026-05-06 16:02 51.15031 -0.19466 199 ft 13 kts 256°
2026-05-06 16:02 51.15011 -0.19601 201 ft 12 kts 258°
2026-05-06 16:02 51.14995 -0.19734 201 ft 12 kts 255°
2026-05-06 16:02 51.14977 -0.19863 198 ft 12 kts 259°
2026-05-06 16:03 51.14957 -0.19992 206 ft 12 kts 256°
2026-05-06 16:03 51.14939 -0.20122 201 ft 12 kts 259°
2026-05-06 16:03 51.14922 -0.20250 198 ft 12 kts 257°
2026-05-06 16:03 51.14905 -0.20376 198 ft 12 kts 257°
2026-05-06 16:04 51.14888 -0.20499 198 ft 11 kts 257°
2026-05-06 16:04 51.14870 -0.20620 203 ft 11 kts 256°
2026-05-06 16:04 51.14852 -0.20761 202 ft 15 kts 259°
2026-05-06 16:04 51.14830 -0.20916 198 ft 14 kts 256°
2026-05-06 16:05 51.14810 -0.21064 201 ft 14 kts 257°
2026-05-06 16:05 51.14780 -0.21206 204 ft 13 kts 251°
2026-05-06 16:05 51.14757 -0.21345 198 ft 13 kts 259°
2026-05-06 16:05 51.14694 -0.21401 198 ft 12 kts 166°
2026-05-06 16:06 51.14633 -0.21335 198 ft 10 kts 165°
2026-05-06 16:06 51.14612 -0.21327 199 ft 0 kts 168°
2026-05-06 16:07 51.14587 -0.21317 209 ft 8 kts 164°
2026-05-06 16:07 51.14533 -0.21255 199 ft 12 kts 125°
2026-05-06 16:07 51.14527 -0.21129 205 ft 17 kts 78°
2026-05-06 16:07 51.14600 -0.20621 207 ft 91 kts 75°
2026-05-06 16:08 51.14767 -0.19266 654 ft 134 kts 77°
2026-05-06 16:08 51.14929 -0.17899 1688 ft 133 kts 69°
2026-05-06 16:08 51.15201 -0.16226 2033 ft 185 kts 73°
2026-05-06 16:08 51.15541 -0.13845 2014 ft 252 kts 75°
2026-05-06 16:09 51.15911 -0.11107 2013 ft 248 kts 75°
2026-05-06 16:09 51.16264 -0.08455 2007 ft 241 kts 75°
2026-05-06 16:09 51.16624 -0.05889 2005 ft 235 kts 76°
2026-05-06 16:09 51.16907 -0.03363 2006 ft 230 kts 84°
2026-05-06 16:10 51.16816 -0.00754 2642 ft 235 kts 90°
2026-05-06 16:10 51.16788 0.01831 2988 ft 238 kts 87°
2026-05-06 16:10 51.16758 0.04561 2997 ft 254 kts 89°
2026-05-06 16:10 51.16702 0.07373 3786 ft 254 kts 88°
2026-05-06 16:11 51.16652 0.10165 5442 ft 259 kts 89°
2026-05-06 16:11 51.16658 0.13120 6045 ft 278 kts 82°
2026-05-06 16:11 51.17454 0.15821 5995 ft 258 kts 46°
2026-05-06 16:11 51.18822 0.17411 5997 ft 236 kts 26°
2026-05-06 16:12 51.20290 0.18484 6000 ft 230 kts 22°
2026-05-06 16:12 51.21796 0.19487 6556 ft 232 kts 21°
2026-05-06 16:12 51.23283 0.20453 7625 ft 231 kts 21°
2026-05-06 16:12 51.24761 0.21429 7992 ft 243 kts 21°
2026-05-06 16:13 51.26410 0.22534 7992 ft 269 kts 21°
2026-05-06 16:13 51.28206 0.23711 8186 ft 288 kts 21°
2026-05-06 16:13 51.30153 0.24987 9051 ft 316 kts 20°
2026-05-06 16:13 51.32234 0.26360 9924 ft 330 kts 21°
2026-05-06 16:14 51.34419 0.27801 10460 ft 341 kts 21°
2026-05-06 16:14 51.36615 0.29270 11357 ft 344 kts 21°
2026-05-06 16:14 51.38839 0.30773 12107 ft 349 kts 20°
2026-05-06 16:14 51.41092 0.32301 12908 ft 355 kts 20°
2026-05-06 16:15 51.43393 0.33870 12985 ft 366 kts 21°
2026-05-06 16:15 51.45616 0.35388 12984 ft 330 kts 21°
2026-05-06 16:15 51.47635 0.36789 12979 ft 302 kts 21°
2026-05-06 16:15 51.49483 0.38086 12979 ft 279 kts 21°
2026-05-06 16:16 51.51075 0.39699 12977 ft 264 kts 37°
2026-05-06 16:16 51.52411 0.41606 12976 ft 250 kts 39°
2026-05-06 16:16 51.53683 0.43405 12976 ft 237 kts 37°
2026-05-06 16:16 51.54948 0.45000 12970 ft 227 kts 33°
2026-05-06 16:17 51.56254 0.46598 12967 ft 249 kts 34°
2026-05-06 16:17 51.57733 0.48432 13291 ft 286 kts 36°
2026-05-06 16:17 51.59365 0.50496 13770 ft 311 kts 35°
2026-05-06 16:17 51.61121 0.52701 13933 ft 338 kts 35°
2026-05-06 16:18 51.63060 0.55081 14151 ft 359 kts 36°
2026-05-06 16:18 51.65048 0.57547 14895 ft 361 kts 36°
2026-05-06 16:18 51.67031 0.60072 15576 ft 366 kts 36°
2026-05-06 16:18 51.69044 0.62626 16218 ft 371 kts 36°
2026-05-06 16:19 51.71082 0.65223 16903 ft 374 kts 36°
2026-05-06 16:19 51.73141 0.67841 17569 ft 379 kts 36°
2026-05-06 16:19 51.75220 0.70495 18244 ft 383 kts 37°
2026-05-06 16:19 51.77324 0.73181 18858 ft 387 kts 36°
2026-05-06 16:20 51.79449 0.75887 19482 ft 391 kts 37°
2026-05-06 16:20 51.81587 0.78630 20132 ft 395 kts 37°
2026-05-06 16:20 51.83649 0.81637 20742 ft 401 kts 41°
2026-05-06 16:20 51.85775 0.84580 21374 ft 406 kts 44°
2026-05-06 16:21 51.87238 0.88454 21988 ft 414 kts 68°
2026-05-06 16:21 51.88253 0.92829 22624 ft 417 kts 68°
2026-05-06 16:21 51.89365 0.97194 23191 ft 421 kts 66°
2026-05-06 16:21 51.90511 1.01578 23772 ft 423 kts 66°
2026-05-06 16:22 51.91652 1.05993 24217 ft 426 kts 67°
2026-05-06 16:22 51.92781 1.10457 24632 ft 428 kts 67°
2026-05-06 16:22 51.93918 1.14932 25022 ft 431 kts 67°
2026-05-06 16:22 51.95063 1.19426 25389 ft 433 kts 67°
2026-05-06 16:23 51.96215 1.23949 25741 ft 435 kts 67°
2026-05-06 16:23 51.97368 1.28508 26074 ft 437 kts 67°
2026-05-06 16:23 51.98522 1.33076 26404 ft 439 kts 67°
2026-05-06 16:23 51.99668 1.37619 26701 ft 441 kts 67°
2026-05-06 16:24 52.00834 1.42241 26998 ft 443 kts 67°
2026-05-06 16:24 52.01997 1.46875 27282 ft 444 kts 67°
2026-05-06 16:24 52.03167 1.51541 27537 ft 447 kts 68°
2026-05-06 16:24 52.04340 1.56234 27787 ft 449 kts 68°
2026-05-06 16:25 52.05517 1.60943 28040 ft 450 kts 68°
2026-05-06 16:25 52.06692 1.65661 28353 ft 450 kts 68°
2026-05-06 16:25 52.07863 1.70368 28687 ft 449 kts 68°
2026-05-06 16:25 52.09030 1.75076 28997 ft 449 kts 68°
2026-05-06 16:26 52.10194 1.79775 29311 ft 448 kts 68°
2026-05-06 16:26 52.11354 1.84471 29605 ft 447 kts 68°
2026-05-06 16:26 52.12511 1.89163 29905 ft 446 kts 68°
2026-05-06 16:26 52.13664 1.93851 30153 ft 446 kts 68°
2026-05-06 16:27 52.14799 1.98472 30375 ft 445 kts 69°
2026-05-06 16:27 52.15949 2.03166 30537 ft 447 kts 69°
2026-05-06 16:27 52.17095 2.07866 30774 ft 446 kts 69°
2026-05-06 16:27 52.18242 2.12555 30975 ft 446 kts 68°
2026-05-06 16:28 52.19381 2.17245 31207 ft 444 kts 69°
2026-05-06 16:28 52.20521 2.21928 31394 ft 444 kts 68°
2026-05-06 16:28 52.21653 2.26614 31615 ft 443 kts 69°
2026-05-06 16:28 52.22793 2.31313 31785 ft 444 kts 68°
2026-05-06 16:29 52.23908 2.35947 32017 ft 442 kts 69°
2026-05-06 16:29 52.25035 2.40614 32162 ft 443 kts 68°
2026-05-06 16:29 52.26155 2.45289 32415 ft 441 kts 68°
2026-05-06 16:29 52.27291 2.50017 32494 ft 443 kts 69°
2026-05-06 16:30 52.28411 2.54707 32704 ft 442 kts 69°
2026-05-06 16:30 52.28773 2.56219 32757 ft 442 kts 68°
2026-05-06 16:30 52.30627 2.64018 33054 ft 441 kts 69°
2026-05-06 16:30 52.31532 2.68806 33179 ft 442 kts 74°
2026-05-06 16:31 52.32355 2.73642 33411 ft 440 kts 74°
2026-05-06 16:31 52.33190 2.78457 33553 ft 441 kts 73°
2026-05-06 16:31 52.34054 2.83263 33724 ft 440 kts 73°
2026-05-06 16:31 52.34900 2.88070 33896 ft 439 kts 73°
2026-05-06 16:32 52.35740 2.92903 34020 ft 439 kts 74°
2026-05-06 16:32 52.36571 2.97706 34150 ft 439 kts 74°
2026-05-06 16:32 52.37971 3.05731 34309 ft 440 kts 74°
2026-05-06 16:33 52.40352 3.16729 34563 ft 441 kts 63°
2026-05-06 16:34 52.44972 3.27848 34813 ft 443 kts 52°
2026-05-06 16:34 52.48679 3.35965 34914 ft 447 kts 52°
2026-05-06 16:35 52.52390 3.44135 34938 ft 451 kts 52°
2026-05-06 16:35 52.56806 3.53878 34930 ft 456 kts 53°
2026-05-06 16:36 52.59964 3.60878 34927 ft 459 kts 53°
2026-05-06 16:36 52.63779 3.69350 34932 ft 462 kts 53°
2026-05-06 16:37 52.67585 3.77837 34930 ft 464 kts 53°
2026-05-06 16:37 52.71422 3.86418 34939 ft 465 kts 53°
2026-05-06 16:38 52.75260 3.95030 34939 ft 466 kts 53°
2026-05-06 16:38 52.79103 4.03682 34931 ft 467 kts 53°
2026-05-06 16:39 52.82954 4.12380 34932 ft 468 kts 53°
2026-05-06 16:39 52.86768 4.21030 34932 ft 468 kts 53°
2026-05-06 16:40 52.90613 4.29773 34935 ft 468 kts 54°
2026-05-06 16:40 52.94442 4.38516 34948 ft 469 kts 53°
2026-05-06 16:41 52.98274 4.47291 34951 ft 469 kts 53°
2026-05-06 16:41 53.02074 4.56025 34951 ft 470 kts 54°
2026-05-06 16:42 53.05897 4.64841 34949 ft 470 kts 54°
2026-05-06 16:42 53.09715 4.73679 34945 ft 470 kts 54°
2026-05-06 16:43 53.13533 4.82546 34948 ft 470 kts 54°
2026-05-06 16:43 53.17340 4.91422 34945 ft 471 kts 54°
2026-05-06 16:44 53.21119 5.00265 34945 ft 471 kts 54°
2026-05-06 16:44 53.24920 5.09181 34945 ft 469 kts 54°
2026-05-06 16:44 53.26810 5.13633 34791 ft 468 kts 54°
2026-05-06 16:45 53.28684 5.18054 34907 ft 464 kts 54°
2026-05-06 16:45 53.32386 5.26804 34934 ft 463 kts 54°
2026-05-06 16:46 53.36106 5.35629 34936 ft 463 kts 54°
2026-05-06 16:46 53.39816 5.44459 34938 ft 463 kts 54°
2026-05-06 16:47 53.43514 5.53293 34946 ft 462 kts 55°
2026-05-06 16:47 53.47176 5.62072 34940 ft 462 kts 55°
2026-05-06 16:48 53.50863 5.70940 34939 ft 462 kts 55°
2026-05-06 16:48 53.54542 5.79821 34940 ft 463 kts 55°
2026-05-06 16:49 53.58221 5.88734 34935 ft 463 kts 55°
2026-05-06 16:49 53.60063 5.93196 35147 ft 463 kts 55°
2026-05-06 16:49 53.61902 5.97678 35029 ft 467 kts 55°
2026-05-06 16:50 53.65583 6.06663 34944 ft 468 kts 55°
2026-05-06 16:50 53.69271 6.15691 34947 ft 467 kts 55°
2026-05-06 16:51 53.72955 6.24743 34946 ft 466 kts 55°
2026-05-06 16:51 53.76621 6.33784 34935 ft 466 kts 56°
2026-05-06 16:52 53.80280 6.42838 34936 ft 466 kts 56°
2026-05-06 16:52 53.83910 6.51856 34940 ft 466 kts 56°
2026-05-06 16:53 53.87555 6.60941 34943 ft 465 kts 56°
2026-05-06 16:53 53.91189 6.70032 34943 ft 465 kts 56°
2026-05-06 16:54 53.94816 6.79139 34938 ft 465 kts 56°
2026-05-06 16:54 53.98408 6.88191 34931 ft 465 kts 56°
2026-05-06 16:55 54.02017 6.97319 34923 ft 465 kts 56°
2026-05-06 16:55 54.05623 7.06474 34937 ft 465 kts 56°
2026-05-06 16:56 54.09230 7.15663 34936 ft 465 kts 56°
2026-05-06 16:56 54.12802 7.24796 34928 ft 465 kts 56°
2026-05-06 16:57 54.16391 7.34008 34933 ft 465 kts 56°
2026-05-06 16:57 54.19968 7.43225 34934 ft 465 kts 57°
2026-05-06 16:58 54.23539 7.52457 34918 ft 465 kts 57°
2026-05-06 16:58 54.27097 7.61691 34929 ft 465 kts 57°
2026-05-06 16:59 54.30656 7.70964 34929 ft 467 kts 57°
2026-05-06 16:59 54.34208 7.80249 34929 ft 469 kts 57°
2026-05-06 17:00 54.37785 7.89638 34929 ft 470 kts 57°
2026-05-06 17:00 54.41363 7.99064 34926 ft 471 kts 57°
2026-05-06 17:01 54.44915 8.08459 34916 ft 472 kts 57°
2026-05-06 17:01 54.48410 8.17739 33962 ft 450 kts 57°
2026-05-06 17:01 54.50106 8.22262 32100 ft 454 kts 58°
2026-05-06 17:02 54.51841 8.26878 30188 ft 457 kts 58°
2026-05-06 17:02 54.53561 8.31488 27904 ft 460 kts 58°
2026-05-06 17:02 54.55311 8.36162 25783 ft 465 kts 58°
2026-05-06 17:02 54.57012 8.40734 24862 ft 440 kts 58°
2026-05-06 17:03 54.58586 8.44940 24903 ft 396 kts 58°
2026-05-06 17:03 54.60004 8.48774 24905 ft 362 kts 58°
2026-05-06 17:03 54.61295 8.52244 24906 ft 334 kts 58°
2026-05-06 17:03 54.62529 8.55583 24593 ft 329 kts 58°
2026-05-06 17:04 54.63759 8.58904 23748 ft 332 kts 58°
2026-05-06 17:04 54.65043 8.62384 21968 ft 356 kts 57°
2026-05-06 17:04 54.66404 8.66070 20754 ft 364 kts 58°
2026-05-06 17:04 54.67739 8.69696 19935 ft 353 kts 57°
2026-05-06 17:05 54.69053 8.73262 19030 ft 348 kts 57°
2026-05-06 17:05 54.70341 8.76781 18158 ft 343 kts 56°
2026-05-06 17:05 54.71614 8.80231 17209 ft 337 kts 57°
2026-05-06 17:05 54.72847 8.83612 16520 ft 333 kts 56°
2026-05-06 17:06 54.74081 8.86970 15911 ft 328 kts 57°
2026-05-06 17:06 54.75291 8.90300 15289 ft 324 kts 56°
2026-05-06 17:06 54.76493 8.93573 14692 ft 320 kts 57°
2026-05-06 17:06 54.77670 8.96826 14113 ft 317 kts 56°
2026-05-06 17:07 54.78847 9.00039 13517 ft 314 kts 56°
2026-05-06 17:07 54.79998 9.03221 12932 ft 309 kts 56°
2026-05-06 17:07 54.81142 9.06370 12313 ft 307 kts 56°
2026-05-06 17:07 54.82269 9.09481 11932 ft 298 kts 57°
2026-05-06 17:08 54.83325 9.12389 11913 ft 279 kts 56°
2026-05-06 17:08 54.84324 9.15158 11909 ft 263 kts 57°
2026-05-06 17:08 54.85271 9.17782 11906 ft 251 kts 57°
2026-05-06 17:08 54.86247 9.20210 11898 ft 241 kts 46°
2026-05-06 17:09 54.87379 9.22336 11899 ft 238 kts 47°
2026-05-06 17:09 54.88453 9.24508 11899 ft 235 kts 47°
2026-05-06 17:09 54.89530 9.26626 11899 ft 233 kts 47°
2026-05-06 17:09 54.90601 9.28732 11899 ft 233 kts 47°
2026-05-06 17:10 54.91684 9.30860 11903 ft 236 kts 47°
2026-05-06 17:10 54.92773 9.33012 11903 ft 238 kts 47°
2026-05-06 17:10 54.93875 9.35188 11904 ft 243 kts 47°
2026-05-06 17:10 54.95014 9.37437 11907 ft 251 kts 47°
2026-05-06 17:11 54.96186 9.39753 11913 ft 257 kts 47°
2026-05-06 17:11 54.97377 9.42116 11919 ft 263 kts 47°
2026-05-06 17:11 54.98581 9.44499 11920 ft 267 kts 47°
2026-05-06 17:11 54.99815 9.46946 11921 ft 270 kts 47°
2026-05-06 17:12 55.01066 9.49430 11919 ft 278 kts 47°
2026-05-06 17:12 55.02388 9.52054 11920 ft 297 kts 47°
2026-05-06 17:12 55.03789 9.54842 11921 ft 312 kts 48°
2026-05-06 17:12 55.05252 9.57761 11920 ft 325 kts 47°
2026-05-06 17:13 55.06743 9.60732 11920 ft 331 kts 47°
2026-05-06 17:13 55.08257 9.63758 11921 ft 328 kts 47°
2026-05-06 17:13 55.09751 9.66749 11920 ft 325 kts 47°
2026-05-06 17:13 55.10956 9.70067 11906 ft 325 kts 70°
2026-05-06 17:14 55.11583 9.73843 11907 ft 322 kts 71°
2026-05-06 17:14 55.12328 9.77520 11907 ft 319 kts 71°
2026-05-06 17:14 55.12965 9.81215 11911 ft 315 kts 73°
2026-05-06 17:14 55.13601 9.84843 11910 ft 309 kts 72°
2026-05-06 17:15 55.14235 9.88404 11909 ft 305 kts 72°
2026-05-06 17:15 55.14863 9.91875 11910 ft 301 kts 72°
2026-05-06 17:15 55.15480 9.95359 11908 ft 298 kts 72°
2026-05-06 17:15 55.16095 9.98812 11909 ft 296 kts 72°
2026-05-06 17:16 55.16700 10.02249 11912 ft 295 kts 72°
2026-05-06 17:16 55.17308 10.05666 11912 ft 293 kts 72°
2026-05-06 17:16 55.17906 10.09067 11914 ft 292 kts 72°
2026-05-06 17:16 55.18506 10.12455 11916 ft 291 kts 72°
2026-05-06 17:17 55.19097 10.15835 11917 ft 291 kts 72°
2026-05-06 17:17 55.19696 10.19220 11918 ft 290 kts 72°
2026-05-06 17:17 55.20284 10.22594 11919 ft 290 kts 72°
2026-05-06 17:17 55.20875 10.25961 11919 ft 289 kts 72°
2026-05-06 17:18 55.21459 10.29327 11921 ft 289 kts 72°
2026-05-06 17:18 55.21850 10.31554 11926 ft 289 kts 72°
2026-05-06 17:18 55.22434 10.34920 11926 ft 288 kts 72°
2026-05-06 17:18 55.23021 10.38280 11926 ft 289 kts 72°
2026-05-06 17:19 55.23793 10.42745 11930 ft 288 kts 72°
2026-05-06 17:19 55.24376 10.46106 11931 ft 288 kts 72°
2026-05-06 17:19 55.24765 10.48379 11930 ft 288 kts 72°
2026-05-06 17:19 55.25349 10.51745 11930 ft 288 kts 72°
2026-05-06 17:20 55.25927 10.55118 11931 ft 288 kts 72°
2026-05-06 17:20 55.26498 10.58435 11931 ft 288 kts 72°
2026-05-06 17:20 55.27075 10.61808 11931 ft 288 kts 72°
2026-05-06 17:20 55.27652 10.65166 11930 ft 288 kts 73°
2026-05-06 17:21 55.28229 10.68535 11931 ft 288 kts 72°
2026-05-06 17:21 55.28812 10.71904 11931 ft 288 kts 72°
2026-05-06 17:21 55.29390 10.75275 11930 ft 288 kts 72°
2026-05-06 17:21 55.29965 10.78638 11930 ft 288 kts 72°
2026-05-06 17:22 55.30535 10.81966 11938 ft 288 kts 72°
2026-05-06 17:22 55.31108 10.85331 11937 ft 288 kts 73°
2026-05-06 17:22 55.31684 10.88701 11936 ft 288 kts 72°
2026-05-06 17:22 55.32255 10.92075 11937 ft 288 kts 73°
2026-05-06 17:23 55.32830 10.95447 11939 ft 288 kts 72°
2026-05-06 17:23 55.33400 10.98839 11938 ft 292 kts 73°
2026-05-06 17:23 55.33984 11.02350 11938 ft 305 kts 73°
2026-05-06 17:23 55.34588 11.05999 11937 ft 315 kts 73°
2026-05-06 17:24 55.35212 11.09745 11936 ft 323 kts 73°
2026-05-06 17:24 55.35848 11.13575 11940 ft 325 kts 73°
2026-05-06 17:24 55.36456 11.17257 11413 ft 304 kts 72°
2026-05-06 17:24 55.37033 11.20764 10618 ft 296 kts 73°
2026-05-06 17:25 55.37604 11.24219 9824 ft 291 kts 73°
2026-05-06 17:25 55.38160 11.27604 9002 ft 284 kts 72°
2026-05-06 17:25 55.38702 11.30908 8181 ft 278 kts 72°
2026-05-06 17:25 55.39211 11.34028 7952 ft 255 kts 72°
2026-05-06 17:26 55.39676 11.36869 7945 ft 228 kts 73°
2026-05-06 17:26 55.40021 11.39443 7938 ft 207 kts 83°
2026-05-06 17:26 55.40051 11.41867 7931 ft 190 kts 87°
2026-05-06 17:26 55.40114 11.44087 7933 ft 175 kts 85°
2026-05-06 17:27 55.40188 11.46141 7933 ft 162 kts 84°
2026-05-06 17:27 55.40268 11.48058 7932 ft 153 kts 84°
2026-05-06 17:27 55.40346 11.49962 7933 ft 160 kts 84°
2026-05-06 17:27 55.40424 11.51945 7940 ft 166 kts 84°
2026-05-06 17:28 55.40512 11.54007 7938 ft 172 kts 84°
2026-05-06 17:28 55.40594 11.56120 7947 ft 180 kts 85°
2026-05-06 17:28 55.40687 11.58403 7955 ft 193 kts 84°
2026-05-06 17:28 55.40779 11.60821 7964 ft 199 kts 84°
2026-05-06 17:29 55.40876 11.63237 7963 ft 197 kts 85°
2026-05-06 17:29 55.40969 11.65633 7962 ft 195 kts 84°
2026-05-06 17:29 55.41062 11.68013 7961 ft 194 kts 85°
2026-05-06 17:29 55.41155 11.70381 7961 ft 193 kts 85°
2026-05-06 17:30 55.41244 11.72731 7962 ft 192 kts 85°
2026-05-06 17:30 55.41336 11.75068 7961 ft 190 kts 84°
2026-05-06 17:30 55.41423 11.77388 7963 ft 189 kts 84°
2026-05-06 17:30 55.41512 11.79671 7966 ft 189 kts 84°
2026-05-06 17:31 55.41597 11.81973 7959 ft 188 kts 85°
2026-05-06 17:31 55.41686 11.84263 7961 ft 187 kts 84°
2026-05-06 17:31 55.41769 11.86553 7960 ft 187 kts 85°
2026-05-06 17:31 55.41857 11.88835 7967 ft 187 kts 84°
2026-05-06 17:32 55.41939 11.91113 7961 ft 186 kts 84°
2026-05-06 17:32 55.42024 11.93378 7968 ft 185 kts 85°
2026-05-06 17:32 55.42105 11.95636 7940 ft 182 kts 85°
2026-05-06 17:32 55.42189 11.97871 7586 ft 181 kts 85°
2026-05-06 17:33 55.42269 12.00101 7093 ft 184 kts 85°
2026-05-06 17:33 55.42348 12.02285 7023 ft 172 kts 85°
2026-05-06 17:33 55.42423 12.04365 6782 ft 171 kts 85°
2026-05-06 17:33 55.42498 12.06455 6580 ft 169 kts 85°
2026-05-06 17:34 55.42572 12.08528 6325 ft 171 kts 85°
2026-05-06 17:34 55.42645 12.10556 5917 ft 165 kts 85°
2026-05-06 17:34 55.42714 12.12593 5371 ft 166 kts 85°
2026-05-06 17:34 55.42787 12.14598 4858 ft 164 kts 85°
2026-05-06 17:35 55.42856 12.16592 4366 ft 162 kts 86°
2026-05-06 17:35 55.42923 12.18538 4054 ft 153 kts 87°
2026-05-06 17:35 55.42990 12.20369 4009 ft 145 kts 86°
2026-05-06 17:36 55.43107 12.23757 4008 ft 131 kts 87°
2026-05-06 17:36 55.43156 12.25305 4003 ft 123 kts 86°
2026-05-06 17:36 55.43205 12.26769 3993 ft 117 kts 88°
2026-05-06 17:36 55.43259 12.28150 3995 ft 112 kts 86°
2026-05-06 17:37 55.43295 12.29532 4004 ft 117 kts 87°
2026-05-06 17:37 55.43356 12.31006 4016 ft 124 kts 88°
2026-05-06 17:37 55.43404 12.32562 4018 ft 131 kts 86°
2026-05-06 17:37 55.43456 12.34191 4019 ft 136 kts 88°
2026-05-06 17:38 55.43636 12.35798 3949 ft 131 kts 69°
2026-05-06 17:38 55.44133 12.37183 3452 ft 138 kts 52°
2026-05-06 17:38 55.44885 12.38281 3002 ft 140 kts 46°
2026-05-06 17:38 55.45601 12.39425 2624 ft 136 kts 46°
2026-05-06 17:39 55.46274 12.40422 2514 ft 117 kts 50°
2026-05-06 17:39 55.46859 12.41324 2490 ft 110 kts 48°
2026-05-06 17:39 55.47413 12.42188 2443 ft 107 kts 52°
2026-05-06 17:39 55.47988 12.43034 2373 ft 105 kts 49°
2026-05-06 17:40 55.48536 12.43931 2105 ft 109 kts 49°
2026-05-06 17:40 55.49109 12.44761 2039 ft 106 kts 52°
2026-05-06 17:40 55.49683 12.45664 2022 ft 116 kts 46°
2026-05-06 17:40 55.50302 12.46616 2023 ft 121 kts 50°
2026-05-06 17:41 55.50970 12.47619 2025 ft 132 kts 47°
2026-05-06 17:41 55.51674 12.48731 2025 ft 138 kts 47°
2026-05-06 17:41 55.52430 12.49878 1887 ft 145 kts 47°
2026-05-06 17:41 55.53173 12.51029 1686 ft 139 kts 46°
2026-05-06 17:42 55.53886 12.52134 1492 ft 135 kts 47°
2026-05-06 17:42 55.54596 12.53205 1301 ft 133 kts 47°
2026-05-06 17:42 55.55264 12.54244 1113 ft 124 kts 47°
2026-05-06 17:42 55.55882 12.55192 939 ft 113 kts 50°
2026-05-06 17:43 55.56432 12.56045 769 ft 105 kts 45°
2026-05-06 17:43 55.56986 12.56914 636 ft 109 kts 52°
2026-05-06 17:43 55.57586 12.57830 483 ft 120 kts 49°
2026-05-06 17:43 55.58234 12.58825 313 ft 126 kts 46°
2026-05-06 17:44 55.58864 12.59888 196 ft 123 kts 37°
2026-05-06 17:44 55.59477 12.60777 50 ft 104 kts 39°
2026-05-06 17:44 55.59956 12.61502 15 ft 73 kts 40°
2026-05-06 17:44 55.60236 12.61920 12 ft 48 kts 39°
2026-05-06 17:45 55.60478 12.62259 14 ft 41 kts 26°
2026-05-06 17:45 55.60674 12.62357 18 ft 3 kts 11°
2026-05-06 17:45 55.60708 12.62371 17 ft 7 kts 13°
2026-05-06 17:45 55.60766 12.62395 16 ft 10 kts 20°
2026-05-06 17:46 55.60825 12.62457 16 ft 10 kts 40°
2026-05-06 17:46 55.60881 12.62541 14 ft 12 kts 39°
2026-05-06 17:46 55.60953 12.62647 12 ft 14 kts 39°
2026-05-06 17:46 55.61026 12.62754 12 ft 14 kts 40°
2026-05-06 17:47 55.61104 12.62871 13 ft 14 kts 41°
2026-05-06 17:47 55.61173 12.62981 15 ft 13 kts 43°
2026-05-06 17:47 55.61242 12.63092 15 ft 14 kts 42°
2026-05-06 17:47 55.61308 12.63201 16 ft 13 kts 44°
2026-05-06 17:48 55.61380 12.63327 13 ft 16 kts 45°
2026-05-06 17:48 55.61465 12.63438 13 ft 16 kts 42°
2026-05-06 17:48 55.61555 12.63578 10 ft 18 kts 40°
2026-05-06 17:48 55.61646 12.63715 11 ft 17 kts 43°
2026-05-06 17:49 55.61727 12.63859 14 ft 15 kts 31°
2026-05-06 17:49 55.61807 12.63969 14 ft 15 kts 40°
2026-05-06 17:49 55.61886 12.64088 15 ft 14 kts 29°
2026-05-06 17:49 55.61979 12.64157 13 ft 15 kts 25°
2026-05-06 17:50 55.62085 12.64243 12 ft 17 kts 27°
2026-05-06 17:50 55.62197 12.64341 9 ft 19 kts 25°
2026-05-06 17:50 55.62279 12.64396 12 ft 0 kts 15°
2026-05-06 17:50 55.62280 12.64397 12 ft 0 kts 15°
2026-05-06 17:51 55.62285 12.64413 12 ft 4 kts 90°
2026-05-06 17:51 55.62284 12.64503 12 ft 8 kts 86°
2026-05-06 17:51 55.62293 12.64580 13 ft 0 kts 63°
2026-05-06 17:51 55.62294 12.64582 13 ft 4 kts 54°
2026-05-06 17:52 55.62337 12.64623 13 ft 1 kts 34°
2026-05-06 17:52 55.62342 12.64627 14 ft 0 kts 20°
2026-05-06 17:52 55.62354 12.64635 14 ft 6 kts 21°
2026-05-06 17:53 55.62386 12.64663 15 ft 4 kts 36°
2026-05-06 17:53 55.62406 12.64689 16 ft 4 kts 37°
2026-05-06 17:53 55.62423 12.64732 15 ft 5 kts 66°
2026-05-06 17:53 55.62447 12.64774 14 ft 0 kts
2026-05-06 17:54 55.62450 12.64775 14 ft 0 kts
2026-05-06 17:54 55.62474 12.64777 14 ft 4 kts 360°
2026-05-06 17:54 55.62495 12.64835 14 ft 5 kts 92°
2026-05-06 17:54 55.62495 12.64900 13 ft 6 kts 89°
2026-05-06 17:55 55.62495 12.64911 13 ft 0 kts 89°